TimeCST,TemperatureF,Dew PointF,Humidity,Sea Level PressureIn,VisibilityMPH,Wind Direction,Wind SpeedMPH,Gust SpeedMPH,PrecipitationIn,Events,Conditions,WindDirDegrees,DateUTC
12:15 AM,24.3,15.8,70,30.18,10.0,West,6.9,-,N/A,,Clear,280,2012-11-12 06:15:00
12:55 AM,24.1,15.4,70,30.18,10.0,West,8.1,-,N/A,,Clear,260,2012-11-12 06:55:00
1:15 AM,24.4,15.4,69,30.18,10.0,West,9.2,-,N/A,,Clear,270,2012-11-12 07:15:00
1:35 AM,23.9,15.4,70,30.18,10.0,West,8.1,-,N/A,,Clear,270,2012-11-12 07:35:00
1:55 AM,24.8,15.6,68,30.18,10.0,West,6.9,-,N/A,,Clear,270,2012-11-12 07:55:00
2:15 AM,23.9,15.4,70,30.19,10.0,West,8.1,-,N/A,,Clear,270,2012-11-12 08:15:00
2:35 AM,23.4,15.4,72,30.19,10.0,West,8.1,-,N/A,,Clear,260,2012-11-12 08:35:00
2:55 AM,23.0,15.4,73,30.19,10.0,West,6.9,-,N/A,,Clear,270,2012-11-12 08:55:00
3:15 AM,23.0,15.4,73,30.19,10.0,West,9.2,-,N/A,,Clear,260,2012-11-12 09:15:00
3:35 AM,23.5,15.4,71,30.20,10.0,West,9.2,-,N/A,,Clear,260,2012-11-12 09:35:00
3:55 AM,22.5,15.6,75,30.20,10.0,WSW,8.1,-,N/A,,Clear,250,2012-11-12 09:55:00
4:15 AM,22.8,15.4,73,30.20,10.0,West,8.1,-,N/A,,Clear,260,2012-11-12 10:15:00
4:35 AM,22.6,15.3,73,30.21,10.0,WSW,5.8,-,N/A,,Clear,250,2012-11-12 10:35:00
4:55 AM,23.0,15.3,72,30.21,10.0,West,9.2,-,N/A,,Clear,260,2012-11-12 10:55:00
5:15 AM,23.9,15.1,69,30.21,10.0,West,9.2,-,N/A,,Clear,270,2012-11-12 11:15:00
5:35 AM,23.7,15.3,70,30.21,10.0,West,9.2,-,N/A,,Clear,270,2012-11-12 11:35:00
5:55 AM,23.0,14.9,71,30.21,10.0,West,8.1,-,N/A,,Clear,260,2012-11-12 11:55:00
6:15 AM,22.8,14.9,72,30.21,10.0,WSW,6.9,-,N/A,,Clear,250,2012-11-12 12:15:00
6:55 AM,22.3,14.9,73,30.23,10.0,WSW,5.8,-,N/A,,Clear,240,2012-11-12 12:55:00
7:15 AM,22.1,15.3,75,30.23,10.0,SW,4.6,-,N/A,,Clear,230,2012-11-12 13:15:00
7:35 AM,23.2,15.8,73,30.24,10.0,WSW,8.1,-,N/A,,Clear,240,2012-11-12 13:35:00
7:55 AM,24.3,16.2,71,30.24,10.0,WSW,10.4,-,N/A,,Clear,250,2012-11-12 13:55:00
8:15 AM,25.0,16.7,71,30.25,10.0,West,10.4,-,N/A,,Clear,260,2012-11-12 14:15:00
8:35 AM,27.7,17.4,65,30.26,10.0,West,13.8,18.4,N/A,,Clear,260,2012-11-12 14:35:00
8:55 AM,29.7,18.3,63,30.26,10.0,West,13.8,17.3,N/A,,Clear,270,2012-11-12 14:55:00
9:15 AM,30.6,18.1,60,30.26,10.0,West,13.8,-,N/A,,Clear,270,2012-11-12 15:15:00
9:55 AM,32.5,18.0,55,30.27,10.0,West,13.8,-,N/A,,Clear,280,2012-11-12 15:55:00
10:15 AM,33.8,18.3,53,30.28,10.0,West,17.3,23.0,N/A,,Clear,270,2012-11-12 16:15:00
10:35 AM,34.9,18.1,51,30.28,10.0,WNW,17.3,23.0,N/A,,Clear,290,2012-11-12 16:35:00
10:55 AM,35.8,16.7,46,30.27,10.0,WNW,19.6,26.5,N/A,,Clear,290,2012-11-12 16:55:00
11:15 AM,36.9,16.2,43,30.28,10.0,WNW,17.3,26.5,N/A,,Clear,290,2012-11-12 17:15:00
11:35 AM,37.4,16.2,42,30.28,10.0,West,20.7,27.6,N/A,,Clear,280,2012-11-12 17:35:00
11:55 AM,37.8,16.7,42,30.28,10.0,WNW,20.7,27.6,N/A,,Clear,290,2012-11-12 17:55:00
12:15 PM,38.3,17.1,42,30.28,10.0,West,23.0,28.8,N/A,,Clear,280,2012-11-12 18:15:00
12:35 PM,39.2,16.5,40,30.27,10.0,WNW,20.7,27.6,N/A,,Clear,290,2012-11-12 18:35:00
12:55 PM,39.2,15.8,39,30.27,10.0,WNW,16.1,27.6,N/A,,Clear,300,2012-11-12 18:55:00
1:15 PM,39.6,16.7,40,30.27,10.0,WNW,23.0,29.9,N/A,,Clear,290,2012-11-12 19:15:00
1:35 PM,40.1,17.2,40,30.28,10.0,West,18.4,26.5,N/A,,Clear,280,2012-11-12 19:35:00
1:55 PM,40.1,16.7,39,30.27,10.0,WNW,16.1,21.9,N/A,,Clear,290,2012-11-12 19:55:00
2:15 PM,41.0,16.2,37,30.27,10.0,WNW,17.3,25.3,N/A,,Clear,290,2012-11-12 20:15:00
2:35 PM,41.0,16.0,36,30.28,10.0,WNW,16.1,20.7,N/A,,Clear,290,2012-11-12 20:35:00
2:55 PM,41.2,16.3,37,30.28,10.0,WNW,16.1,19.6,N/A,,Clear,290,2012-11-12 20:55:00
3:15 PM,41.0,15.8,36,30.28,10.0,WNW,16.1,23.0,N/A,,Clear,300,2012-11-12 21:15:00
3:35 PM,41.0,15.1,35,30.29,10.0,WNW,15.0,-,N/A,,Clear,300,2012-11-12 21:35:00
3:55 PM,40.6,16.0,37,30.30,10.0,WNW,15.0,-,N/A,,Clear,290,2012-11-12 21:55:00
4:15 PM,40.3,15.6,37,30.31,10.0,WNW,10.4,-,N/A,,Clear,290,2012-11-12 22:15:00
4:35 PM,39.4,16.2,39,30.31,10.0,WNW,8.1,-,N/A,,Clear,290,2012-11-12 22:35:00
4:55 PM,37.4,17.2,44,30.31,10.0,WNW,5.8,-,N/A,,Clear,300,2012-11-12 22:55:00
5:15 PM,36.5,16.3,44,30.32,10.0,Calm,Calm,-,N/A,,Clear,0,2012-11-12 23:15:00
5:35 PM,36.5,16.5,44,30.32,10.0,West,3.5,-,N/A,,Clear,270,2012-11-12 23:35:00
5:55 PM,36.3,15.8,43,30.33,10.0,West,3.5,-,N/A,,Clear,280,2012-11-12 23:55:00
6:15 PM,34.7,16.7,48,30.33,10.0,Calm,Calm,-,N/A,,Clear,0,2012-11-13 00:15:00
6:35 PM,34.2,16.7,49,30.33,10.0,West,3.5,-,N/A,,Clear,270,2012-11-13 00:35:00
6:55 PM,34.7,15.8,46,30.33,10.0,West,3.5,-,N/A,,Clear,270,2012-11-13 00:55:00
7:15 PM,34.5,16.2,47,30.34,10.0,West,3.5,-,N/A,,Clear,270,2012-11-13 01:15:00
7:35 PM,34.3,15.8,47,30.34,10.0,West,3.5,-,N/A,,Clear,280,2012-11-13 01:35:00
7:55 PM,33.6,15.8,48,30.34,10.0,West,3.5,-,N/A,,Clear,270,2012-11-13 01:55:00
8:15 PM,32.0,16.3,52,30.35,10.0,Calm,Calm,-,N/A,,Clear,0,2012-11-13 02:15:00
8:35 PM,32.0,16.2,52,30.36,10.0,West,3.5,-,N/A,,Clear,260,2012-11-13 02:35:00
8:55 PM,32.5,15.8,50,30.36,10.0,Calm,Calm,-,N/A,,Clear,0,2012-11-13 02:55:00
9:15 PM,33.8,14.9,46,30.36,10.0,Calm,Calm,-,N/A,,Clear,0,2012-11-13 03:15:00
9:35 PM,33.3,14.9,47,30.37,10.0,Calm,Calm,-,N/A,,Clear,0,2012-11-13 03:35:00
9:55 PM,32.5,14.9,48,30.37,10.0,Calm,Calm,-,N/A,,Clear,0,2012-11-13 03:55:00
10:15 PM,32.0,15.3,50,30.37,10.0,Calm,Calm,-,N/A,,Clear,0,2012-11-13 04:15:00
10:35 PM,29.8,16.0,56,30.37,10.0,Calm,Calm,-,N/A,,Clear,0,2012-11-13 04:35:00
10:55 PM,30.2,15.8,55,30.37,10.0,SSE,3.5,-,N/A,,Clear,160,2012-11-13 04:55:00
11:15 PM,30.0,16.0,56,30.37,10.0,SSE,3.5,-,N/A,,Clear,150,2012-11-13 05:15:00
11:35 PM,28.6,16.7,61,30.38,10.0,SSE,4.6,-,N/A,,Clear,160,2012-11-13 05:35:00
11:55 PM,27.7,17.1,64,30.37,10.0,South,4.6,-,N/A,,Clear,170,2012-11-13 05:55:00